Location: Rostock
(54.0884°N, 12.1234°E)
Time: 00:53:02
(UTC+02:00)

ISS - Pass Details

Date: 02 June 2018
Orbit: 402 x 406 km, 51.6° (Epoch: 21 June)

Event Time Altitude Azimuth Distance (km) Brightness Sun altitude
Rises 23:02:15 0° 277° (W) 2,325 0.6 -8.9°
Reaches altitude 10° 23:04:44 10° 258° (WSW) 1,461 -0.8 -9.1°
Maximum altitude 23:07:04 18° 212° (SSW) 1,061 -2.0 -9.2°
Enters shadow 23:08:55 12° 173° (S) 1,321 -1.8 -9.3°
